User: anonymous   Login
Location: Cheny Ridge Estates
(40.6074°N, 111.8785°W)
Time: 05:40:22
(UTC+00:00)
Language:

ISS - Orbit

View from above orbital plane
View from above orbital plane
View from above satellite
View from above satellite

Ground track
Ground track

The orbit data is extracted from the following two-line orbital elements,

1 25544U 98067A   21106.88495791  .00000899  00000-0  24551-4 0  9998
2 25544  51.6447 285.9337 0002715 234.0528 270.9074 15.48890709279092
Epoch (UTC): 16 April 2021 21:14:20
Eccentricity: 0.0002715
inclination: 51.6447°
perigee height: 418 km
apogee height: 422 km
right ascension of ascending node: 285.9337°
argument of perigee: 234.0528°
revolutions per day: 15.48890709
mean anomaly at epoch: 270.9074°
orbit number at epoch: 27909

The dashed part of the orbit path shows where the satellite is in the earth's shadow,  

DLR